TimeAKDT,TemperatureF,Dew PointF,Humidity,Sea Level PressureIn,VisibilityMPH,Wind Direction,Wind SpeedMPH,Gust SpeedMPH,PrecipitationIn,Events,Conditions,WindDirDegrees,DateUTC
12:16 AM,28.4,26.6,93,30.04,10.0,Calm,Calm,-,N/A,,Clear,0,2012-10-04 08:16:00
12:36 AM,26.6,24.8,93,30.04,10.0,Calm,Calm,-,N/A,,Clear,0,2012-10-04 08:36:00
12:56 AM,28.4,26.6,93,30.04,10.0,East,3.5,-,N/A,,Scattered Clouds,80,2012-10-04 08:56:00
1:16 AM,26.6,24.8,93,30.04,10.0,Calm,Calm,-,N/A,,Mostly Cloudy,0,2012-10-04 09:16:00
1:36 AM,26.6,24.8,93,30.03,10.0,Calm,Calm,-,N/A,,Overcast,0,2012-10-04 09:36:00
1:56 AM,26.6,24.8,93,30.03,10.0,Calm,Calm,-,N/A,,Overcast,0,2012-10-04 09:56:00
2:16 AM,26.6,24.8,93,30.02,10.0,NNE,4.6,-,N/A,,Mostly Cloudy,30,2012-10-04 10:16:00
2:36 AM,26.6,24.8,93,30.02,10.0,SE,3.5,-,N/A,,Clear,140,2012-10-04 10:36:00
2:56 AM,24.8,23.0,93,30.02,10.0,SE,3.5,-,N/A,,Clear,140,2012-10-04 10:56:00
3:16 AM,24.8,24.8,100,30.02,10.0,Calm,Calm,-,N/A,,Clear,0,2012-10-04 11:16:00
3:36 AM,24.8,24.8,100,30.01,10.0,Calm,Calm,-,N/A,,Clear,0,2012-10-04 11:36:00
3:56 AM,24.8,23.0,93,30.01,10.0,Calm,Calm,-,N/A,,Clear,0,2012-10-04 11:56:00
4:16 AM,24.8,24.8,100,30.01,10.0,Calm,Calm,-,N/A,,Clear,0,2012-10-04 12:16:00
4:36 AM,24.8,24.8,100,30.00,10.0,ENE,3.5,-,N/A,,Clear,60,2012-10-04 12:36:00
4:56 AM,24.8,24.8,100,30.00,10.0,East,4.6,-,N/A,,Clear,90,2012-10-04 12:56:00
5:16 AM,26.6,24.8,93,30.00,10.0,Calm,Calm,-,N/A,,Clear,0,2012-10-04 13:16:00
5:36 AM,24.8,24.8,100,30.00,10.0,East,4.6,-,N/A,,Clear,80,2012-10-04 13:36:00
5:56 AM,24.8,24.8,100,29.99,10.0,East,3.5,-,N/A,,Clear,80,2012-10-04 13:56:00
6:16 AM,26.6,24.8,93,29.98,10.0,ENE,4.6,-,N/A,,Clear,70,2012-10-04 14:16:00
6:36 AM,26.6,24.8,93,29.98,10.0,ENE,3.5,-,N/A,,Clear,70,2012-10-04 14:36:00
6:56 AM,24.8,23.0,93,29.97,10.0,NE,5.8,-,N/A,,Clear,40,2012-10-04 14:56:00
7:16 AM,24.8,24.8,100,29.97,10.0,ENE,4.6,-,N/A,,Clear,70,2012-10-04 15:16:00
7:36 AM,26.6,24.8,93,29.97,10.0,East,4.6,-,N/A,,Clear,90,2012-10-04 15:36:00
8:16 AM,24.8,24.8,100,29.97,10.0,Calm,Calm,-,N/A,,Clear,0,2012-10-04 16:16:00
8:36 AM,24.8,23.0,93,29.96,10.0,Calm,Calm,-,N/A,,Partly Cloudy,0,2012-10-04 16:36:00
8:56 AM,24.8,23.0,93,29.96,10.0,Calm,Calm,-,N/A,,Mostly Cloudy,0,2012-10-04 16:56:00
9:16 AM,24.8,24.8,100,29.97,10.0,Calm,Calm,-,N/A,,Overcast,0,2012-10-04 17:16:00
9:36 AM,24.8,24.8,100,29.98,10.0,Calm,Calm,-,N/A,,Mostly Cloudy,0,2012-10-04 17:36:00
9:56 AM,26.6,24.8,93,29.98,10.0,NW,3.5,-,N/A,,Mostly Cloudy,320,2012-10-04 17:56:00
10:16 AM,26.6,24.8,93,29.96,10.0,Calm,Calm,-,N/A,,Overcast,0,2012-10-04 18:16:00
10:36 AM,26.6,26.6,100,29.95,10.0,ENE,6.9,-,N/A,,Overcast,60,2012-10-04 18:36:00
10:56 AM,28.4,26.6,93,29.96,10.0,East,5.8,-,N/A,,Overcast,90,2012-10-04 18:56:00
11:16 AM,28.4,26.6,93,29.96,10.0,East,3.5,-,N/A,,Overcast,100,2012-10-04 19:16:00
11:36 AM,28.4,26.6,93,29.96,10.0,Calm,Calm,-,N/A,,Overcast,0,2012-10-04 19:36:00
11:56 AM,30.2,26.6,86,29.95,10.0,NE,4.6,-,N/A,,Overcast,50,2012-10-04 19:56:00
12:16 PM,30.2,26.6,86,29.96,10.0,Calm,Calm,-,N/A,,Overcast,0,2012-10-04 20:16:00
12:36 PM,30.2,28.4,93,29.95,10.0,East,3.5,-,N/A,,Overcast,80,2012-10-04 20:36:00
12:56 PM,30.2,26.6,86,29.96,10.0,Calm,Calm,-,N/A,,Overcast,0,2012-10-04 20:56:00
1:16 PM,30.2,28.4,93,29.96,10.0,Calm,Calm,-,N/A,,Overcast,0,2012-10-04 21:16:00
1:36 PM,30.2,26.6,86,29.95,10.0,Calm,Calm,-,N/A,,Overcast,0,2012-10-04 21:36:00
1:56 PM,30.2,26.6,86,29.95,10.0,Calm,Calm,-,N/A,,Overcast,0,2012-10-04 21:56:00
2:16 PM,32.0,28.4,87,29.95,10.0,Calm,Calm,-,N/A,,Overcast,0,2012-10-04 22:16:00
2:36 PM,32.0,28.4,87,29.96,10.0,Calm,Calm,-,N/A,,Mostly Cloudy,0,2012-10-04 22:36:00
2:56 PM,32.0,28.4,87,29.95,10.0,Calm,Calm,-,N/A,,Mostly Cloudy,0,2012-10-04 22:56:00
3:16 PM,32.0,28.4,87,29.95,10.0,Calm,Calm,-,N/A,,Overcast,0,2012-10-04 23:16:00
3:36 PM,33.8,28.4,81,29.96,10.0,Calm,Calm,-,N/A,,Overcast,0,2012-10-04 23:36:00
3:56 PM,33.8,28.4,81,29.96,10.0,Calm,Calm,-,N/A,,Overcast,0,2012-10-04 23:56:00
4:16 PM,33.8,28.4,81,29.95,10.0,Calm,Calm,-,N/A,,Overcast,0,2012-10-05 00:16:00
4:36 PM,33.8,28.4,81,29.95,10.0,Calm,Calm,-,N/A,,Overcast,0,2012-10-05 00:36:00
4:56 PM,33.8,28.4,81,29.95,9.0,Calm,Calm,-,N/A,,Overcast,0,2012-10-05 00:56:00
5:16 PM,33.8,28.4,81,29.94,10.0,NNE,3.5,-,N/A,,Overcast,30,2012-10-05 01:16:00
5:36 PM,33.8,28.4,81,29.95,10.0,Calm,Calm,-,N/A,,Overcast,0,2012-10-05 01:36:00
5:56 PM,33.8,28.4,81,29.94,10.0,East,3.5,-,N/A,,Overcast,90,2012-10-05 01:56:00
6:16 PM,33.8,28.4,81,29.94,10.0,East,3.5,-,N/A,,Overcast,90,2012-10-05 02:16:00
6:36 PM,33.8,28.4,81,29.95,10.0,ESE,3.5,-,N/A,,Overcast,110,2012-10-05 02:36:00
6:56 PM,33.8,28.4,81,29.95,10.0,ESE,3.5,-,N/A,,Scattered Clouds,110,2012-10-05 02:56:00
7:16 PM,33.8,28.4,81,29.95,10.0,Calm,Calm,-,N/A,,Mostly Cloudy,0,2012-10-05 03:16:00
7:36 PM,33.8,28.4,81,29.95,10.0,Calm,Calm,-,N/A,,Mostly Cloudy,0,2012-10-05 03:36:00
7:56 PM,32.0,28.4,87,29.95,10.0,WNW,4.6,-,N/A,,Overcast,290,2012-10-05 03:56:00
8:16 PM,32.0,28.4,87,29.95,10.0,Calm,Calm,-,N/A,,Overcast,0,2012-10-05 04:16:00
8:36 PM,33.8,28.4,81,29.95,10.0,Calm,Calm,-,N/A,,Overcast,0,2012-10-05 04:36:00
8:56 PM,32.0,28.4,87,29.95,10.0,Calm,Calm,-,N/A,,Overcast,0,2012-10-05 04:56:00
9:16 PM,32.0,28.4,87,29.95,10.0,Calm,Calm,-,N/A,,Overcast,0,2012-10-05 05:16:00
9:36 PM,30.2,28.4,93,29.95,10.0,Calm,Calm,-,N/A,,Overcast,0,2012-10-05 05:36:00
9:56 PM,32.0,28.4,87,29.95,10.0,Calm,Calm,-,N/A,,Mostly Cloudy,0,2012-10-05 05:56:00
10:16 PM,32.0,28.4,87,29.95,10.0,NNW,3.5,-,N/A,,Mostly Cloudy,340,2012-10-05 06:16:00
10:36 PM,32.0,28.4,87,29.96,10.0,Calm,Calm,-,N/A,,Scattered Clouds,0,2012-10-05 06:36:00
10:56 PM,30.2,28.4,93,29.98,10.0,Calm,Calm,-,N/A,,Scattered Clouds,0,2012-10-05 06:56:00
11:16 PM,30.2,28.4,93,29.98,10.0,Calm,Calm,-,N/A,,Mostly Cloudy,0,2012-10-05 07:16:00
11:36 PM,30.2,28.4,93,29.98,10.0,Calm,Calm,-,N/A,,Partly Cloudy,0,2012-10-05 07:36:00
11:56 PM,28.4,28.4,100,29.98,10.0,Calm,Calm,-,N/A,,Clear,0,2012-10-05 07:56:00